Regional Weather Roundup
Issued by NWS

Home | Current Version | Previous Version | Text Only | Print | Product List | Glossary On
Versions: 1 2 3 4 5 6 7 8 9 10 11 12 13 14 15 16 17 18 19 20 21 22 23 24 25 26 27 28 29 30 31 32 33 34 35 36 37 38 39 40 41 42 43 44 45 46 47 48 49 50
000
ASUS43 KDTX 042010
RWRMI
MICHIGAN HOURLY REGIONAL WEATHER ROUNDUP
NATIONAL WEATHER SERVICE DETROIT/PONTIAC MI
300 PM EST SUN DEC 04 2016

NOTE: "FAIR" INDICATES FEW OR NO CLOUDS BELOW 12,000 FEET WITH NO
SIGNIFICANT WEATHER AND/OR OBSTRUCTION TO VISIBILITY.

MIZ047>049-052>055-059>063-066>070-074>076-081>083-042100-
SOUTHEAST LOWER MICHIGAN

CITY           SKY/WX    TMP DP  RH WIND       PRES   REMARKS
ADRIAN         CLOUDY    37  30  75 SE7       30.04F WCI  32
ALMA           LGT SNOW  35  30  82 SE9       30.04F WCI  27
ANN ARBOR      CLOUDY    37  27  67 E8        30.04F WCI  31
BAD AXE        CLOUDY    36  28  75 S5        30.07F WCI  32
CARO           CLOUDY    36  29  74 SE6       30.05F WCI  31
DETROIT CITY   CLOUDY    38  28  67 SE9       30.08R WCI  31
DETROIT        CLOUDY    38  27  64 SE7       30.06F WCI  33
FLINT          CLOUDY    37  26  64 SE9       30.05F WCI  30
GROSSE ILE     CLOUDY    38  28  68 SE5       30.04F WCI  34
HILLSDALE      CLOUDY    34  30  86 E6        30.01F WCI  29
HOWELL         CLOUDY    36  26  68 SE7       30.03F WCI  30

CITY           SKY/WX    TMP DP  RH WIND       PRES   REMARKS
JACKSON        CLOUDY    37  27  67 SE7       30.02F WCI  32
LAMBERTVILLE   CLOUDY    39  29  66 SE6       30.04F
LANSING        CLOUDY    36  26  67 SE9       30.04F WCI  29
LAPEER         NOT AVBL
MASON          CLOUDY    36  29  76 SE6       30.04S WCI  31
MONROE         CLOUDY    38  29  71 E8        30.04F WCI  32
MT. CLEMENS    CLOUDY    39  29  68 SE7       30.05F WCI  34
PONTIAC        CLOUDY    36  26  67 SE8       30.03F WCI  30
PORT HOPE        N/A     37  30  75 S5        30.06F WCI  33
PORT HURON     CLOUDY    37  30  75 SE6       30.07F WCI  33
TRI CITIES     CLOUDY    37  29  72 SE9       30.06F WCI  30
MIDLAND        CLOUDY    37  25  62 SE7       30.04F WCI  32
TROY           CLOUDY    38  26  62 SE6       30.07F WCI  34
SAGINAW HB     CLOUDY    37  28  70 SE5       30.05F WCI  34
$$
MIZ043>046-050>051-056>058-064>065-071>073-077>080-042100-
SOUTHWEST LOWER MICHIGAN

CITY           SKY/WX    TMP DP  RH WIND       PRES   REMARKS
BATTLE CREEK   SNOW      33  32  96 E7        30.01F VSB 1/2 WCI  27
BENTON HARBOR  SNOW      33  31  92 E5        29.97F VSB 1/4 WCI  29
BIG RAPIDS     CLOUDY    36  26  66 SE8       30.00S WCI  30
COLDWATER      CLOUDY    37  29  75 E6        30.00F WCI  32
FREMONT        LGT SNOW  35  25  66 S9        29.99F WCI  27
HOLLAND        LGT SNOW  33  31  92 E8        29.98F VSB 3/4 WCI  26
GRAND RAPIDS   HVY SNOW  33  30  88 SE10      30.00F VSB 1/4 WCI  25
IONIA          CLOUDY    35  26  70 SE13      30.01F WCI  26
KALAMAZOO      SNOW      33  30  88 E7        29.99F VSB 1/4 WCI  27
LUDINGTON      LGT SNOW  32  32 100 E7        29.97F WCI  26
MARSHALL       LGT SNOW  33  32  96 E3        30.02F VSB 1
MOUNT PLEASANT CLOUDY    36  27  69 SE10      30.01F WCI  28
MUSKEGON       SNOW      33  32  96 SE9       29.99F VSB 1/2 WCI  25
SOUTH HAVEN    LGT SNOW  34  33  96 SE6       29.97F VSB 1   WCI  29
$$
MIZ016>042-042100-
NORTHERN LOWER MICHIGAN

CITY           SKY/WX    TMP DP  RH WIND       PRES   REMARKS
ALPENA         CLOUDY    39  26  59 SE10      30.04F WCI  32
BEAVER ISLAND  LGT SNOW  32  32  99 SE7       29.99F WCI  26
BELLAIRE       LGT SNOW  33  31  91 SE3       30.02F
CADILLAC       LGT SNOW  31  29  93 SE6       29.97F VSB 1   WCI  25
CHARLEVOIX     LGT SNOW  33  31  92 SE8       30.04F WCI  26
FRANKFORT      LGT SNOW  33  32  96 SE6       29.99F WCI  27
GAYLORD        LGT SNOW  32  26  78 S12       29.99F WCI  23
GRAYLING       LGT SNOW  32  30  92 SE6       30.01S VSB 1   WCI  27
HARBOR SPRINGS LGT SNOW  34  28  78 SE7       30.01F WCI  28
HOUGHTON LAKE  LGT SNOW  31  27  85 SE6       30.01F VSB 3/4 WCI  25
MANISTEE       LGT SNOW  32  31  96 E6        29.98F VSB 3/4 WCI  26
OSCODA         CLOUDY    39  28  65 S5        30.05F
PELLSTON       CLOUDY    36  26  67 S7        30.01F WCI  30
ROGERS CITY    CLOUDY    39  29  69 S5        30.04F
TRAVERSE CITY  LGT SNOW  34  31  88 CALM      29.99F VSB 1
$$
MIZ007>008-015-042100-
EASTERN UPPER MICHIGAN

CITY           SKY/WX    TMP DP  RH WIND       PRES   REMARKS
KINROSS        LGT SNOW  33  31  92 E10       30.02F FOG     WCI  25
MACKINAC ISLAN LGT SNOW  34  31  88 SE7       30.01F WCI  28
NEWBERRY       LGT SNOW  33  32  96 SE6       29.98F WCI  27
S. S. MARIE    LGT SNOW  33  30  88 SE10G21   30.02F FOG     WCI  25
MUNISING         N/A     32  30  92 CALM      29.95F
$$
MIZ004>006-011>014-085-042100-
CENTRAL UPPER MICHIGAN

CITY           SKY/WX    TMP DP  RH WIND       PRES   REMARKS
MANISTIQUE     LGT SNOW  32  31  94 CALM      29.97F VSB 3/4
ESCANABA       LGT SNOW  30  30 100 CALM      29.96F VSB 1
MENOMINEE      LGT SNOW  32  30  92 S7        29.96F FOG     WCI  26
SAWYER-GWINN   LGT SNOW  28  27  93 S7        29.92F WCI  21
$$
MIZ001>003-009>011-084-042100-
WESTERN UPPER MICHIGAN

CITY           SKY/WX    TMP DP  RH WIND       PRES   REMARKS
IRON MOUNTAIN  LGT SNOW  30  26  85 S7        29.90F VSB 1   WCI  23
HOUGHTON       LGT SNOW  30  27  88 S5        29.88F VSB 3/4 WCI  25
COPPER HARBOR    N/A     32  28  85 VRB5      29.91F WCI  27
IRONWOOD       LGT SNOW  30  28  93 S10G17    29.82F FOG     WCI  21
$$

ABBREVIATIONS USED IN REMARKS
   TC - TEMPERATURE IN CELSIUS
  WCI - WIND CHILL INDEX
   HX - HEAT INDEX
  VSB - VISIBILITY




USA.gov is the U.S. government's official web portal to all federal, state and local government web resources and services.